Regional Weather Roundup
Issued by NWS

Home | Current Version | Previous Version | Graphics & Text | Print | Product List | Glossary On
Versions: 1 2 3 4 5 6 7 8 9 10 11 12 13 14 15 16 17 18 19 20 21 22 23 24 25 26 27
000
ASUS45 KCYS 140610
RWRWY

WYOMING REGIONAL WEATHER ROUNDUP
NATIONAL WEATHER SERVICE CHEYENNE WY
1100 PM MST WED DEC 13 2017

NOTE:  "FAIR" INDICATES FEW OR NO CLOUDS BELOW 12,000 FEET
WITH NO SIGNIFICANT WEATHER AND/OR OBSTRUCTIONS TO VISIBILITY.

WYZ001-140700-
YELLOWSTONE NATIONAL PARK

CITY           SKY/WX    TMP DP  RH WIND       PRES   REMARKS
LK YELLOWSTONE   N/A     17  16  95 W3        30.29F
6HR MIN TEMP:  17; 6HR MAX TEMP:  22; 6HR PCP:  0.01;

W YELLOWSTONE  NOT AVBL

$$
WYZ002>013-054>058-071-098>099-140700-
NORTHERN WYOMING

CITY           SKY/WX    TMP DP  RH WIND       PRES   REMARKS
JACKSON        FAIR      20  19  96 N5          N/A  WCI  13
CODY           FAIR      28  25  88 S3        30.27F
GREYBULL       FAIR      33  29  85 NW15      30.24S WCI  23
6HR MIN TEMP:  33; 6HR MAX TEMP:  36;

WORLAND        CLOUDY    33  29  85 NW9       30.25S WCI  25
6HR MIN TEMP:  32; 6HR MAX TEMP:  36; 6HR PCP: TRACE;

SHERIDAN       MOCLDY    38  24  57 W12       30.22S WCI  30
6HR MIN TEMP:  35; 6HR MAX TEMP:  39;

BUFFALO        CLOUDY    38  19  46 NW15      30.19S WCI  29
6HR MIN TEMP:  36; 6HR MAX TEMP:  40;

GILLETTE       FAIR      33  23  66 NW15      30.17S WCI  23
6HR MIN TEMP:  33; 6HR MAX TEMP:  37;

HULETT         CLOUDY    34  25  69 NW5       30.14S WCI  30
NEWCASTLE      MOCLDY    32  21  64 NW14      30.13S WCI  22

$$
WYZ014>020-022>026-101>103-140700-
CENTRAL WYOMING

CITY           SKY/WX    TMP DP  RH WIND       PRES   REMARKS
BIG PINEY      CLOUDY    26  18  71 N8        30.22R WCI  18
6HR MIN TEMP:  26; 6HR MAX TEMP:  32; 6HR PCP: TRACE;

PINEDALE       FAIR      23  23 100 CALM      30.23R
DUBOIS         FAIR      23  21  93 W5        30.23R WCI  17
LANDER         MOCLDY    27  26  96 SW7       30.26S WCI  19
6HR MIN TEMP:  28; 6HR MAX TEMP:  31; 6HR PCP:  0.14;

RIVERTON       MOCLDY    28  27  96 W10       30.26R WCI  19
6HR MIN TEMP:  26; 6HR MAX TEMP:  32; 6HR PCP:  0.01;

CASPER         LGT SNOW  29  28  96 W8        30.22R FOG     WCI  21
6HR MIN TEMP:  29; 6HR MAX TEMP:  33; 6HR PCP:  0.04;

DOUGLAS        CLOUDY    31  27  85 W10       30.20R WCI  22
6HR MIN TEMP:  31; 6HR MAX TEMP:  40;


$$
WYZ021-027>030-104>119-140700-
SOUTHERN WYOMING

CITY           SKY/WX    TMP DP  RH WIND       PRES   REMARKS
EVANSTON       CLOUDY    24  23  96 N16       30.21S WCI  11
6HR MIN TEMP:  24; 6HR MAX TEMP:  30; 6HR PCP: TRACE;

FORT BRIDGER   CLOUDY    28  23  79 W10       30.24R WCI  19
ROCK SPRINGS   CLOUDY    26  23  88 NE9       30.21R WCI  17
6HR MIN TEMP:  26; 6HR MAX TEMP:  34; 6HR PCP: TRACE;

DIXON          FLURRIES  32  25  74 NE17      30.16S WCI  21
RAWLINS        CLOUDY    27  25  92 N9        30.18R FOG     WCI  18
6HR MIN TEMP:  27; 6HR MAX TEMP:  35;

SARATOGA       LGT SNOW  28  28 100 N12G18    30.16R WCI  18
LARAMIE        LGT SNOW  25  25 100 N12       30.13R FOG     WCI  14
6HR MIN TEMP:  25; 6HR MAX TEMP:  36; 6HR PCP:  0.07;

CHEYENNE       MIX PCPN  28  25  88 N20G26    30.14R WCI  15
6HR MIN TEMP:  28; 6HR MAX TEMP:  40; 6HR PCP: TRACE;

TORRINGTON     CLOUDY    37  23  56 NW10      30.16R WCI  30
6HR MIN TEMP:  36; 6HR MAX TEMP:  45;

PINE BLUFFS    CLOUDY    34  19  55 MISG      30.15S

$$




USA.gov is the U.S. government's official web portal to all federal, state and local government web resources and services.